www.pogodaiklimat.ru

Погода и климат >> Архив погоды >> Россия >> Ямало-Ненецкий АО >> Красноселькупск


ПОГОДА в Красноселькупске

  • Прогноз погоды в Красноселькупске
  • Монитор погоды в Красноселькупске

АРХИВ ПОГОДЫ в Красноселькупске

Время (UTC), дата Ветер
(напр.,м/с)
 
Видим.   Явления Облачность Т
(С)
Тd
(С)
f
(%)
Тe
(С)
Тes
(С)
Комфортность P
(гПа)
Po
(гПа)
Тmin
(С)
Tmax
(С)
R
(мм)
R24
(мм)
S
(см)
18 16.01 ЮЗ 3 2000 м слаб. ливневой снег 10/8 420 м
[Cb cap As trans]
-16.1 -18.7 80 -23 -23 1009.6 1006.3
21 16.01 З 4 2000 м слаб. ливневой снег 10/8 400 м
[Cb cap As trans]
-17.4 -19.9 81 -26 -26 1011.7 1008.3
00 17.01 З 3 20 км в посл. час ливневой снег 10/8 240 м
[Cb cap As op]
-17.6 -20.0 81 -25 -25 1013.8 1010.4
03 17.01 ЮЗ 2 20 км {ливн. осадки} 10/8 360 м
[Cb cap As trans]
-18.7 -21.2 81 -24 -24 1015.5 1012.1 -18.8 0.4 69
06 17.01 ЮЗ 2 2000 м слаб. снег 10/5 210 м
[St As trans]
-18.9 -21.4 81 -25 -25 1017.2 1013.8 -19.1
09 17.01 Ю 2 20 км {снег} 10/0
[As trans Ci fib]
-20.5 -23.2 79 -26 -26 1017.6 1014.2
12 17.01 Ю 2 20 км {снег} 9/0
[Ac trans]
-17.6 -20.0 81 -23 -23 1017.5 1014.1
15 17.01 Ю 5 2000 м слаб. снег 10/0
[Ac As]
-14.9 -17.2 83 -24 -24 1014.7 1011.4 -14.9 0.3
18 17.01 Ю 5
{11}
2000 м слаб. ливневой снег 10/8 540 м
[Cb cap Ac As]
-12.3 -14.7 82 -20 -20 1012.1 1008.8
21 17.01 Ю 7-11
{14}
20 км позёмок {ливн. осадки} 10/8 330 м
[Sc As trans]
-9.9 -12.2 83 -19 -19 1008.8 1005.6
00 18.01 Ю 7-12
{15}
20 км позёмок {ливн. осадки} 10/3 300 м
[Sc As trans]
-8.4 -11.3 80 -17 -17 1006.6 1003.4
03 18.01 Ю 7-12
{15}
20 км позёмок {ливн. осадки} 10/3 300 м
[Sc As trans]
-8.4 -11.3 80 -17 -17 1006.6 1003.4
06 18.01 Ю 7-13
{15}
2000 м слаб. ливневой снег 10/8 400 м
[Cb cap Ac As]
-8.4 -11.2 80 -17 -17 1002.1 998.9 -8.4
09 18.01 Ю 7-11
{14}
1000 м ливневой снег {метель} 10/10 240 м
[Cb cap]
-8.1 -10.5 83 -17 -17 1001.4 998.2
12 18.01 ЮЗ 7-11
{12}
2000 м слаб. ливневой снег {метель} 10/10 300 м
[Cb cap]
-8.2 -11.0 80 -17 -17 1002.3 999.1
15 18.01 ЮЗ 6-10
{11}
4000 м слаб. снег 10/8 540 м
[Cb cap Ac As]
-8.9 -11.6 81 -17 -17 1002.7 999.5 -8.1 0.3
18 18.01 Ю 6
{12}
2000 м слаб. снег 10/8 420 м
[Sc Ac trans]
-9.4 -12.0 81 -18 -18 1002.1 998.9
21 18.01 Ю 6-10
{11}
2000 м слаб. снег {метель} 10/8 330 м
[Sc Ac trans]
-10.2 -12.7 82 -19 -19 1000.8 997.6
00 19.01 Ю 6
{10}
2000 м слаб. ливневой снег {метель} 10/8 210 м
[Cb cap Ac trans]
-10.2 -12.6 83 -19 -19 998.9 995.7
03 19.01 Ю 6-11
{11}
4000 м слаб. снег {метель} 10/5 400 м
[Sc Ac trans]
-10.3 -13.0 81 -19 -19 996.5 993.3 -10.9 0.9 66
06 19.01 Ю 6
{12}
2000 м слаб. ливневой снег {метель} 10/6 500 м
[Cb cap Ac As]
-10.5 -13.1 81 -19 -19 994.3 991.1
09 19.01 Ю 5
{11}
4000 м слаб. ливневой снег {метель} 10/10 400 м
[Cb cap]
-10.1 -12.7 81 -18 -18 992.9 989.7
12 19.01 ЮЗ 5 4000 м слаб. ливневой снег {метель} 8/8 450 м
[Cb cap]
-9.1 -11.4 83 -17 -17 994.0 990.8
15 19.01 З 5
{10}
20 км в посл. час ливневой снег 8/8 500 м
[Cb cap]
-9.8 -12.3 82 -18 -18 997.0 993.8 -8.9 0.8
18 19.01 З 5 2000 м слаб. ливневой снег 10/8 420 м
[Cb cap As trans]
-12.6 -15.6 78 -21 -21 1000.5 997.3
21 19.01 ЮЗ 4 20 км {ливн. осадки} 8/0
[Ac trans Ci fib]
-16.6 -18.9 82 -25 -25 1002.9 999.6
00 20.01 Ю 2 20 км {ливн. осадки} 8/0
[Ac trans Ci fib]
-18.5 -20.7 83 -24 -24 1003.7 1000.4
03 20.01 ЮЗ 2 20 км ясно -21.1 -23.8 79 -27 -27 1004.0 1000.6 -21.1 0.0 66
06 20.01 ЮЗ 2 20 км ясно -22.3 -25.2 77 -29 -28 1005.2 1001.8
09 20.01 ЮЗ 2 20 км 8/0
[Ci fib]
-24.1 -27.3 75 -31 -31 опасность
обморожения
1007.6 1004.2
12 20.01 З 2 20 км 4/0
[Ci fib]
-25.3 -28.5 75 -32 -32 опасность
обморожения
1010.9 1007.4
15 20.01 ЮЗ 2 20 км 4/0
[Ci fib]
-27.7 -31.2 72 -35 -35 опасность
обморожения
1013.5 1010.1 -21.1
18 20.01 штиль 0 20 км 10/0
[As trans]
-28.1 -31.7 71 -28 -28 1015.8 1012.3
21 20.01 Ю 1 20 км 10/0
[As trans]
-29.1 -32.8 70 -33 -33 опасность
обморожения
1018.3 1014.8
00 21.01 ЮВ 1 20 км 10/0
[As trans]
-29.3 -32.9 71 -33 -33 опасность
обморожения
1020.1 1016.6
03 21.01 ЮВ 2 20 км 10/0
[As trans]
-29.4 -33.2 69 -37 -37 опасность
обморожения
1020.0 1016.5 -29.8 65
06 21.01 В 2 20 км 10/0
[As trans]
-26.9 -30.3 73 -34 -34 опасность
обморожения
1020.2 1016.7
09 21.01 В 2 20 км 10/0
[As trans]
-23.2 -26.2 76 -30 -30 1018.6 1015.1
12 21.01 В 4 20 км [диам. изморози мм] 10/0
[As op]
-20.0 -22.9 78 -29 -29 1016.2 1012.8
15 21.01 В 5
{11}
20 км позёмок 10/0
[As op]
-16.8 -20.0 76 -26 -26 1012.7 1009.4 -16.8
18 21.01 ЮВ 6-11
{12}
2000 м слаб. ливневой снег 10/8 240 м
[Cb cap Ac As]
-15.7 -18.5 79 -25 -25 1009.1 1005.8
21 21.01 ЮВ 5
{10}
2000 м слаб. ливневой снег 10/8 300 м
[Cb cap Ac As]
-14.2 -16.7 81 -23 -23 1007.4 1004.1
00 22.01 ЮВ 5 2000 м слаб. ливневой снег {метель} 10/8 270 м
[Cb cap Ac As]
-13.1 -15.6 81 -21 -21 1006.2 1002.9
03 22.01 ЮВ 4 2000 м слаб. ливневой снег {метель} 10/8 360 м
[Cb cap As op]
-13.2 -15.5 83 -21 -21 1006.9 1003.6 -16.8 2 66
06 22.01 ЮЗ 3 20 км в посл. час снег {ливн. осадки} 4/0
[Ci fib]
-15.1 -17.6 81 -22 -22 1008.2 1004.9 -15.1
09 22.01 Ю 3 20 км 5/0
[Ac trans Ci fib]
-18.0 -20.5 81 -25 -25 1011.0 1007.6
12 22.01 Ю 2 20 км 10/0
[Ac As]
-17.3 -20.0 79 -23 -23 1011.6 1008.3
15 22.01 ЮВ 2 4000 м слаб. снег 9/0
[Ac trans]
-17.1 -19.6 81 -22 -22 1012.3 1009.0 -13.2 0.3
18 22.01 Ю 2 10 км снежные кристаллы 10/0
[Ac As]
-17.7 -20.1 81 -23 -23 1012.7 1009.4
21 22.01 Ю 2 20 км {снег} 4/0
[Ac trans Ci fib]
-20.3 -22.9 80 -26 -26 1013.9 1010.5
00 23.01 Ю 2 20 км {снег} 6/0
[Ac trans Ci fib]
-21.0 -23.7 79 -27 -27 1013.8 1010.4
03 23.01 ЮВ 2 10 км снежные кристаллы 10/0
[Ac As]
-20.7 -23.4 79 -27 -27 1013.2 1009.8 -21.4 0.3 65
06 23.01 В 2 10 км слаб. снег 10/0
[Ac trans Ci fib]
-18.2 -20.8 80 -24 -24 1012.6 1009.2
09 23.01 В 1 20 км в посл. час снег 5/0
[Ac trans Ci fib]
-18.1 -20.6 81 -21 -21 1012.8 1009.4
12 23.01 ЮВ 1 20 км {снег} ясно -24.3 -27.3 76 -28 -28 1014.6 1011.1

 

Местоположение метеостанции Красноселькупск (Ямало-Ненецкий АО, Россия): широта 65.70 долгота 82.45 высота над уровнем моря 25 м.

В архиве по умолчанию представлена погода в Красноселькупске за последнюю неделю. Архивные данные за месяц целиком и за предыдущие месяцы, начиная с января 2011 года, Вы можете получить, выбрав интересующий диапазон дат из раскрывающегося списка и нажав кнопку "Ввод!".


*Определитесь, кто Вы:
робот инопланетянин человек

Внимание! Время в таблицах - всемирное. Для получения местного времени необходимо прибавить поправку, которая равна 5 ч.

Смотрите также архив погоды в соседних городах и на ближайших метеорологических станциях:

Погода в Советской Речке (Красноярский край, Россия) (138 км)
Погода в Уренгое (Ямало-Ненецкий АО, Россия) (187 км)
Погода в Тольке (Ямало-Ненецкий АО, Россия) (192 км)
Погода в Курейке (Красноярский край, Россия) (231 км)
Погода в Тарко-Сале (Ямало-Ненецкий АО, Россия) (232 км)
Погода в Туруханске (Красноярский край, Россия) (251 км)
Погода в Тазовском (Ямало-Ненецкий АО, Россия) (256 км)
Погода в Новом Уренгое (Ямало-Ненецкий АО, Россия) (261 км)
Погода в Игарке (Красноярский край, Россия) (268 км)
Погода в Верещагино (Красноярский край, Россия) (287 км)

Пояснения к столбцам:

Ветер - указаны скорость ветра в м/с - средняя за 10 мин, порывы в срок и между сроками (в фигурных скобках) и направление, откуда дует ветер: С - северный, СВ - северо-восточный, В - восточный, ЮВ - юго-восточный, Ю - южный, ЮЗ - юго-западный, З - западный, СЗ - северо-западный.
Видимость - горизонтальная дальность видимости в метрах или километрах. При видимости от 1 до 10 км при отсутствии осадков обычно наблюдается дымка, при ухудшении видимости до 1 км и менее - туман. В сухую погоду видимость может ухудшаться дымом, пылью или мглою.
Явления - указаны атмосферные явления, наблюдавшиеся в срок или в последний час перед сроком; фигурными скобками обозначены явления, наблюдавшиеся между сроками (за 1-3 часа до срока); квадратными скобками обозначены град или гололедные отложения с указанием их диаметра в мм.
Облачность - указаны через наклонную черту общая и нижняя облачность в баллах и высота нижней границы облаков в метрах; квадратными скобками обозначены формы облаков: Ci - перистые, Cs - перисто-слоистые, Cc - перисто-кучевые, Ac - высококучевые, As - высокослоистые, Sc - слоисто-кучевые, Ns - слоисто-дождевые, Cu - кучевые, Cb - кучево-дождевые. Подробнее классификацию облаков см. в Атласе облаков (PDF).
T - Температура воздуха - температура, измеренная на высоте 2 м над землей.
Td - Температура точки росы - температура, при понижении до которой содержащийся в воздухе водяной пар достигнет насыщения.
f - Относительная влажность воздуха - влажноcть воздуха, измеренная на высоте 2 м над землей.
Te - Эффективная температура - температура, которую ощущает одетый по сезону человек в тени. Характеристика душности погоды. При расчете учитывается влияние влажности воздуха и скорости ветра на теплоощущения человека.
Tes - Эффективная температура на солнце - температура, которую ощущает человек, с поправкой на солнечный нагрев. Характеристика знойности погоды. Зависит от высоты солнца над горизонтом, облачности и скорости ветра. Ночью, в пасмурную погоду, а также при ветре 12 м/с и более поправка равна нулю.
P - Атмосферное давление - приведенное к уровню моря атмосферное давление.
Po - Атмосферное давление - измеренное на уровне метеостанции атмосферное давление.
Tmin - Минимальная температура - минимум температуры воздуха на высоте 2 м над землей.
Tmax - Максимальная температура - максимум температуры воздуха на высоте 2 м над землей.
R - Количество осадков - Количество выпавших осадков за период времени, мм. При наведении курсора мыши на число - период времени, за который выпало указанное количество осадков.
R24 - Количество осадков - Количество выпавших осадков за 24 часа, мм.
S - Снежный покров - Высота снежного покрова, см. При наведении курсора мыши на число - состояние снежного покрова и степень покрытия местности в баллах.